This demonstration page uses our WeatherBlox Daily Observations layout. Learn more.

Left ArrowRight Arrow

Hourly Observations for June 12, 2017

Temp ( °F °C ) Dew Point ( °F °C ) Humidity (%) Winds ( mph kmh ) Pressure ( in mb ) Visibility ( mi km ) Precip ( " mm )
12:53 am 00:53 Clear 77 25 71 21.7 82 82 SSE 6 9 30.16 1021 10 16 0.00 0.00
1:53 am 01:53 Mostly Cloudy 76 24.4 71 21.7 85 85 SSE 7 11 30.14 1021 10 16 0.00 0.00
2:53 am 02:53 Clear 75 23.9 71 21.7 88 88 SSE 5 7 30.13 1020 10 16 0.00 0.00
3:10 am 03:10 Mostly Cloudy 75 23.9 71 21.7 88 88 Calm 30.12 1020 10 16 0.00 0.00
3:53 am 03:53 Mostly Clear 74 23.3 71 21.7 91 91 Calm 30.12 1020 10 16 0.00 0.00
4:33 am 04:33 Mostly Cloudy 74 23.3 71 21.7 91 91 Calm 30.12 1020 10 16 0.00 0.00
4:53 am 04:53 Cloudy 72 22.2 71 21.7 97 97 Calm 30.13 1020 10 16 0.00 0.00
5:19 am 05:19 Partly Cloudy 73 22.8 72 22.2 96 96 WSW 3 6 30.12 1020 10 16 0.00 0.00
5:53 am 05:53 Clear 73 22.8 72 22.2 96 96 Calm 30.14 1021 10 16 0.00 0.00
6:43 am 06:43 Mostly Cloudy 71 21.7 71 21.7 100 100 Calm 30.18 1022 10 16 0.00 0.00
6:51 am 06:51 Cloudy 73 23 72 22 94 94 Calm 30.15 1021 10 16 0.00 0.00
6:53 am 06:53 Cloudy 73 22.8 72 22.2 96 96 Calm 30.16 1021 10 16 0.00 0.00
7:53 am 07:53 Cloudy 73 22.8 72 22.2 96 96 Calm 30.17 1022 10 16 0.00 0.00
8:53 am 08:53 Mostly Cloudy 75 23.9 72 22.2 90 90 SSW 3 6 30.18 1022 10 16 0.00 0.00
9:31 am 09:31 Mostly Cloudy 77 25 73 22.8 88 88 NNW 3 6 30.15 1021 10 16 0.00 0.00
9:43 am 09:43 Partly Cloudy 77 25 73 22.8 88 88 W 3 6 30.15 1021 10 16 0.00 0.00
9:53 am 09:53 Partly Cloudy 78 25.6 73 22.8 85 85 NNW 3 6 30.19 1022 10 16 0.00 0.00
10:53 am 10:53 Partly Cloudy 82 27.8 73 22.8 74 74 Calm 30.17 1022 10 16 0.00 0.00
11:53 am 11:53 Mostly Sunny 84 28.9 72 22.2 67 67 VRB 3 6 30.16 1021 10 16 0.00 0.00
12:14 pm 12:14 Sunny with Nearby Thunderstorms 84 28.9 72 22.2 67 67 undefined N/A 30.15 1021 10 16 0.00 0.00
12:43 pm 12:43 Sunny 86 30 70 21.1 59 59 VRB 6 9 30.15 1021 10 16 0.00 0.00
12:53 pm 12:53 Sunny 85 29.4 69 20.6 59 59 VRB 3 6 30.15 1021 10 16 0.00 0.00
1:20 pm 13:20 Partly Cloudy with Nearby Thunderstorms 85 29.4 72 22.2 65 65 SE 10 17 30.15 1021 10 16 0.00 0.00
1:53 pm 13:53 Mostly Cloudy 84 28.9 71 21.7 65 65 ESE 9 15 30.12 1020 10 16 0.00 0.00
2:53 pm 14:53 Sunny 85 29.4 70 21.1 61 61 ESE 8 13 30.10 1019 10 16 0.00 0.00
3:41 pm 15:41 Partly Cloudy with Nearby Thunderstorms 87 30.6 69 20.6 55 55 S 8 13 30.09 1019 10 16 0.00 0.00
3:53 pm 15:53 Partly Cloudy 87 30.6 71 21.7 59 59 SSE 13 20 30.08 1019 10 16 0.00 0.00
4:22 pm 16:22 Mostly Cloudy with Thunderstorms 81 27.2 72 22.2 74 74 SE 16 26 30.09 1019 9 14 0.00 0.03
4:37 pm 16:37 Cloudy with Nearby Thunderstorms 78 25.6 70 21.1 76 76 SE 12 19 30.09 1019 10 16 0.00 0.03
4:53 pm 16:53 Mostly Cloudy with Nearby Thunderstorms 79 26.1 72 22.2 79 79 SE 6 9 30.08 1019 10 16 0.00 0.03
5:10 pm 17:10 Sunny 80 26.7 74 23.3 82 82 SE 6 9 30.09 1019 10 16 0.00 0.03
5:19 pm 17:19 Sunny with Nearby Thunderstorms 80 26.7 74 23.3 82 82 ESE 6 9 30.06 1018 10 16 0.00 0.03
5:34 pm 17:34 Sunny 80 26.7 75 23.9 85 85 SE 5 7 30.06 1018 10 16 0.00 0.03
5:53 pm 17:53 Mostly Sunny 80 26.7 75 23.9 85 85 Calm 30.08 1019 10 16 0.00 0.03
6:53 pm 18:53 Mostly Cloudy 81 27.2 74 23.3 79 79 SE 5 7 30.07 1018 10 16 0.00 0.00
7:53 pm 19:53 Sunny 82 27.8 73 22.8 74 74 S 5 7 30.06 1018 10 16 0.00 0.00
8:53 pm 20:53 Mostly Clear 79 26.1 72 22.2 79 79 SSE 6 9 30.08 1019 10 16 0.00 0.00
9:53 pm 21:53 Clear 78 25.6 71 21.7 79 79 SE 3 6 30.09 1019 10 16 0.00 0.00
10:53 pm 22:53 Mostly Cloudy 76 24.4 72 22.2 88 88 Calm 30.10 1019 10 16 0.00 0.00
11:53 pm 23:53 Clear 75 23.9 71 21.7 88 88 Calm 30.10 1019 10 16 0.00 0.00

Powered by AerisWeather